sat.trackr.live / text

‹ back to catalog

STARLINK-35940

NORAD 66617 · 2025-271A

PAYLOAD ACTIVE UNKNOWN

§ Identity

Operator
Country
US
Launch date
2025-11-23
Launch site
AFWTR
Launch vehicle
Mass (kg)
RCS (m²)

Purposes: comms

External: N2YO · Heavens-Above · Gunter

§ Orbital elements

Epoch: 2026-09-20T10:23:56.384736Z

Period
93.85 min
Inclination
53.1600°
Eccentricity
0.0001168
Mean motion
15.34415775 rev/d
Perigee alt
461.9 km
Apogee alt
463.5 km
Semi-major
6,840.8 km
B*
6.2880e-4
RAAN
313.9005°
Arg perigee
75.4903°
Mean anomaly
284.6229°
Rev number
4,740

§ Raw data

STARLINK-359401 66617U 25271A   26263.43329149  .00020939  00000+0  62880-3 0  99962 66617  53.1600 313.9005 0001168  75.4903 284.6229 15.34415775 47408

JSON: /api/v1/satellites/66617 · /tle

For live sub-satellite position, see the globe view (requires WebGL).

§ Visibility from observer

Set your observer location to see the next 7 days of passes ≥ 10°. The values pass through the URL so the page stays shareable.

No JS? Fill the form by hand. The geolocation button needs JavaScript.